Location: St. Louis
(38.6270°N, 90.1994°W)
Time: 05:25:11
(UTC-06:00)

Explorer 7 - Pass Details

Date: 11 December 2021
Orbit: 483 x 674 km, 50.3° (Epoch: 19 January)

Event Time Altitude Azimuth Distance (km) Brightness Sun altitude
Exits shadow 04:32:59 13° 31° (NNE) 1,711 9.5 -29.6°
Drops below altitude 10° 04:33:31 10° 36° (NE) 1,865 9.8 -29.5°
Sets 04:36:06 0° 51° (NE) 2,726 11.0 -29.0°
